Wind_Speed
15 17 18 19 19 19 19 18 18 19 19 18 18 17 17 16 15 15 15 15 15 15 15 16 17 17 18 18 19 19 19 20 20 21 21 22 23 23 24 24 24 24 24
13 15 17 18 18 18 18 18 18 18 19 19 18 18 18 18 17 17 18 18 18 18 19 19 20 20 21 22 22 22 23 23 23 24 24 25 25 26 26 27 27 27 27
13 14 15 16 17 17 18 18 17 18 18 19 18 18 19 20 20 21 21 21 22 22 22 23 24 24 25 25 25 26 26 27 27 27 27 27 28 28 28 29 29 29 29
12 14 14 15 16 17 17 18 18 19 19 19 20 20 21 22 23 23 23 24 24 25 26 26 27 27 28 28 29 29 29 30 30 30 30 31 31 30 30 31 31 31 32
13 14 15 16 16 17 17 18 19 20 20 20 21 22 23 24 24 25 25 26 27 28 29 30 30 30 31 31 31 32 32 32 33 33 33 33 34 34 34 33 34 34 34
15 16 16 17 17 17 18 18 19 21 22 23 24 25 26 27 27 27 28 29 30 31 32 32 33 33 34 35 35 35 35 35 35 35 35 36 36 37 37 36 36 36 36
18 18 18 18 19 19 20 21 21 23 24 25 26 27 28 29 30 30 31 31 32 33 34 35 35 36 36 36 37 37 38 38 38 38 38 38 39 39 40 39 39 39 39
20 20 21 21 21 22 22 23 23 24 25 27 28 29 30 31 32 33 33 33 34 34 35 36 37 38 38 38 39 39 39 39 40 40 40 40 41 41 42 42 42 42 41
22 22 23 24 24 24 25 26 27 27 28 28 29 30 31 32 33 34 34 35 35 36 36 37 38 39 40 40 40 40 40 41 42 42 43 43 43 44 44 44 45 45 44
24 25 26 26 26 26 27 28 29 30 30 30 31 32 32 33 34 35 35 36 37 38 39 40 40 41 41 42 43 43 43 43 44 44 45 45 46 46 47 47 48 48 48
27 27 27 27 27 28 29 29 30 31 32 32 32 33 33 33 34 35 36 37 38 39 41 42 43 43 44 45 45 45 46 46 46 46 47 48 49 49 50 51 51 52 51
28 28 28 28 28 29 30 30 31 32 32 32 33 34 35 36 36 38 39 39 40 41 42 43 45 46 46 47 48 48 48 49 49 49 50 51 52 52 53 54 54 54 54
28 28 29 30 30 31 32 33 33 34 34 34 35 36 37 38 39 39 40 41 43 44 45 46 46 47 48 49 50 51 51 51 51 52 52 53 54 54 55 55 56 56 57
27 28 30 31 32 33 34 34 35 35 36 37 37 38 39 40 41 41 42 44 44 45 46 47 49 50 50 51 52 53 53 53 53 53 53 54 55 55 55 56 57 57 56
27 29 30 31 32 33 34 34 36 35 36 37 38 40 41 41 42 44 44 45 46 47 47 49 50 51 52 52 53 54 54 54 55 55 55 55 55 56 56 56 56 56 57
28 30 31 32 33 33 34 34 35 37 37 37 38 39 41 42 43 45 46 46 47 48 49 50 51 52 52 53 53 53 54 55 55 55 55 55 55 55 56 57 58 58 58
28 29 30 31 32 33 34 35 35 37 38 39 39 41 43 45 46 47 47 48 48 49 50 51 51 52 52 52 53 54 54 55 55 55 55 55 55 56 57 58 58 58 58
28 29 30 31 32 33 35 36 37 38 39 41 42 43 44 45 47 47 48 49 50 50 50 51 51 51 52 52 53 53 53 53 53 54 55 55 56 56 56 55 55 55 55
29 30 31 32 34 35 36 37 38 40 42 43 44 45 46 47 48 48 49 49 49 50 51 52 52 52 53 53 52 52 52 53 53 53 54 54 54 53 53 53 53 52 52
30 32 33 35 36 37 38 40 41 43 44 45 46 47 48 48 49 49 49 50 51 51 51 51 51 51 52 51 51 51 52 52 52 52 52 52 51 51 51 52 51 51 50
32 33 35 36 37 39 40 41 43 44 45 46 47 48 48 48 49 49 50 50 51 51 51 51 51 51 52 52 52 52 52 51 51 51 50 50 49 49 48 48 47 47 46
34 35 36 38 39 40 41 43 44 45 46 47 48 48 48 48 49 49 49 49 49 50 50 50 50 49 49 50 50 50 50 49 49 48 48 47 46 45 45 44 43 43 43
36 37 38 40 41 42 43 44 45 46 47 47 47 47 47 47 47 46 46 47 47 47 48 48 48 48 48 48 48 48 47 47 46 46 45 44 43 42 42 42 41 41 40
38 39 41 42 43 44 45 46 47 47 48 47 47 46 45 44 44 44 44 44 44 45 45 45 44 43 43 43 43 43 42 42 41 41 41 40 40 40 39 39 38 37 36
40 41 42 43 44 45 46 47 47 46 45 44 43 42 41 41 41 41 41 40 40 39 39 38 38 38 38 39 38 37 37 36 36 35 35 34 35 34 34 34 33 32 31
41 42 42 43 44 44 44 43 43 42 41 40 39 38 38 38 37 37 36 35 34 34 33 33 33 33 33 33 33 32 32 31 31 30 29 29 29 28 28 27 26 26 25
Wind_Direction
192 194 197 200 202 207 211 211 212 213 213 213 215 218 224 231 238 243 249 253 256 260 264 268 270 274 276 278 280 282 283 283 283 284 284 285 287 288 288 289 289 289 289
197 197 200 202 205 209 211 214 217 219 220 221 223 227 233 238 244 250 255 258 261 264 267 270 272 275 277 278 279 281 282 282 283 283 283 283 284 285 285 286 287 287 287
203 202 203 206 210 213 216 220 223 225 227 226 230 236 242 246 252 256 258 262 263 266 269 272 274 276 278 279 280 281 282 282 283 283 283 283 282 283 283 284 284 284 284
208 208 210 214 217 220 223 227 231 232 233 235 239 243 248 254 257 259 262 264 266 269 271 274 276 277 279 281 283 283 283 283 283 283 284 283 283 283 283 283 283 283 283
215 215 216 219 224 226 229 234 237 238 239 242 246 250 253 257 261 263 265 266 268 270 272 275 277 278 281 282 283 284 284 283 283 283 284 283 282 282 282 282 282 282 282
224 225 225 226 228 229 232 237 240 242 244 247 252 255 258 261 263 265 267 268 270 272 274 276 277 279 280 281 282 282 282 282 282 282 282 282 282 282 282 283 283 282 281
230 231 233 233 234 234 238 242 245 247 249 253 256 259 262 265 266 267 269 271 272 274 275 277 278 278 279 281 282 282 282 282 282 282 282 282 282 283 283 283 282 282 281
236 237 239 238 240 241 244 248 250 253 255 257 260 262 264 267 269 270 270 271 273 275 276 277 278 279 279 280 280 282 283 282 282 281 282 282 282 282 282 282 282 281 280
242 242 242 244 244 245 248 250 253 255 258 260 263 265 266 268 270 271 271 271 273 275 277 278 279 279 278 280 281 282 283 282 282 282 282 282 282 282 282 282 281 281 280
246 245 246 248 249 250 251 254 256 257 259 262 264 265 266 268 270 271 272 273 273 274 276 277 279 280 280 280 281 281 282 283 282 282 282 282 282 282 283 283 282 282 281
248 248 248 251 253 253 255 257 260 262 264 266 266 267 268 270 271 274 275 276 276 276 278 278 278 278 280 281 281 281 282 281 281 281 282 282 282 283 283 283 282 282 281
253 252 253 255 257 259 260 262 265 266 268 269 269 270 271 272 273 275 276 276 277 278 279 279 279 279 280 281 281 281 281 281 281 282 282 282 282 282 282 282 281 281 280
256 257 258 259 261 262 263 265 267 268 269 269 269 271 273 273 274 275 276 277 278 279 279 279 279 281 282 282 282 281 282 282 282 282 282 282 282 282 282 282 282 282 281
260 262 263 263 264 266 268 267 268 268 268 269 271 272 274 276 276 277 278 278 279 280 280 280 281 281 281 281 282 282 282 282 282 282 282 282 281 282 283 283 283 282 282
264 265 268 270 272 272 271 270 270 268 271 272 273 272 273 275 278 279 279 280 280 280 281 281 282 282 282 282 282 282 281 282 281 281 281 281 282 283 283 283 283 283 283
267 269 271 273 275 276 275 276 274 273 275 275 276 276 277 278 278 279 280 280 280 281 281 281 282 283 283 283 282 281 281 281 281 282 283 283 284 284 285 284 284 284 284
272 274 276 277 278 279 279 278 278 279 279 279 280 281 281 281 282 282 282 282 282 283 283 283 283 283 284 283 283 283 283 283 283 284 284 284 284 284 285 285 285 284 285
276 278 279 280 280 282 282 280 282 283 283 282 281 283 284 284 285 284 285 285 285 284 285 285 285 284 284 284 284 284 284 284 285 285 285 285 285 285 286 286 285 285 286
279 280 282 283 284 285 284 283 284 285 285 284 284 285 285 286 286 286 287 286 286 286 285 285 285 285 285 285 285 285 286 286 286 286 286 286 286 286 286 286 286 286 286
281 281 282 284 285 286 286 286 286 286 286 286 286 286 286 287 287 288 288 288 287 287 286 286 286 286 286 285 285 286 287 288 288 288 287 287 287 287 288 288 287 287 286
284 285 286 286 287 288 288 288 287 287 287 288 288 289 289 289 289 289 288 288 288 287 287 287 286 286 286 286 286 287 287 288 288 288 288 288 288 288 288 288 288 287 286
287 288 288 288 289 289 289 289 289 289 289 289 290 290 290 289 289 289 289 289 289 289 288 287 287 287 287 287 288 288 288 288 288 288 288 288 288 288 287 287 287 287 287
289 290 290 290 291 290 290 290 291 291 291 291 292 292 292 291 291 291 290 289 289 290 289 289 289 288 289 289 288 288 289 290 289 289 288 288 288 287 287 287 288 288 288
291 291 292 292 292 292 292 292 292 292 292 292 293 293 292 292 292 292 291 292 292 292 291 290 290 290 290 291 291 291 291 291 291 290 290 290 289 289 288 288 288 288 289
292 293 293 293 293 293 293 293 293 293 293 293 294 293 293 294 293 294 295 296 296 295 294 293 293 293 294 294 294 294 294 294 294 293 292 291 292 292 290 290 290 289 289
295 295 295 295 295 296 295 295 295 295 294 294 294 294 295 296 296 298 299 299 299 299 299 298 299 299 299 298 298 297 297 297 297 296 296 295 295 295 295 294 293 293 293
Height
5824 5827 5830 5833 5836 5839 5842 5844 5847 5849 5851 5853 5855 5858 5860 5861 5863 5864 5865 5866 5866 5867 5867 5867 5867 5867 5866 5865 5865 5864 5863 5863 5862 5861 5859 5858 5856 5855 5853 5852 5850 5849 5848
5824 5826 5829 5832 5835 5838 5840 5842 5845 5847 5849 5851 5853 5855 5857 5858 5860 5861 5861 5862 5862 5863 5863 5862 5862 5862 5861 5861 5860 5859 5858 5857 5856 5855 5853 5852 5850 5849 5847 5846 5844 5843 5841
5823 5825 5828 5830 5833 5836 5838 5840 5842 5844 5846 5848 5850 5852 5853 5854 5855 5856 5857 5857 5857 5857 5857 5857 5857 5856 5856 5855 5854 5853 5852 5850 5849 5848 5846 5845 5844 5842 5841 5839 5837 5836 5834
5822 5824 5826 5828 5831 5833 5835 5837 5839 5841 5843 5845 5846 5848 5849 5850 5850 5851 5851 5851 5851 5851 5851 5851 5850 5850 5849 5848 5847 5846 5845 5844 5842 5841 5839 5838 5836 5834 5833 5831 5830 5828 5827
5820 5822 5824 5826 5828 5830 5832 5834 5836 5837 5839 5841 5842 5843 5844 5845 5845 5845 5845 5845 5845 5845 5844 5844 5843 5843 5842 5841 5839 5838 5837 5835 5834 5832 5831 5829 5827 5826 5824 5823 5821 5819 5818
5818 5820 5822 5823 5825 5827 5829 5830 5832 5833 5834 5836 5837 5838 5838 5839 5839 5839 5839 5838 5838 5837 5837 5836 5835 5834 5833 5832 5830 5829 5827 5826 5824 5823 5822 5820 5818 5816 5815 5813 5812 5810 5809
5815 5816 5818 5820 5822 5823 5825 5826 5827 5828 5830 5831 5831 5832 5832 5832 5832 5832 5832 5831 5830 5829 5828 5827 5826 5825 5824 5822 5821 5819 5818 5816 5815 5813 5812 5810 5808 5806 5804 5803 5801 5800 5798
5811 5812 5814 5815 5817 5818 5820 5821 5822 5823 5824 5824 5825 5825 5825 5825 5824 5824 5823 5823 5822 5821 5820 5818 5817 5815 5814 5812 5811 5809 5807 5805 5804 5802 5801 5799 5797 5795 5793 5791 5790 5788 5787
5806 5808 5809 5811 5812 5813 5814 5814 5815 5816 5817 5817 5817 5817 5817 5816 5816 5815 5814 5814 5813 5812 5810 5809 5807 5805 5803 5802 5800 5799 5797 5795 5792 5790 5789 5787 5785 5783 5781 5779 5777 5775 5774
5801 5802 5803 5804 5805 5806 5807 5807 5808 5809 5809 5809 5809 5808 5808 5807 5806 5805 5804 5803 5802 5801 5799 5798 5796 5794 5792 5790 5789 5787 5786 5783 5781 5779 5777 5775 5772 5770 5767 5765 5763 5761 5760
5794 5795 5796 5797 5798 5798 5799 5800 5800 5800 5801 5800 5800 5799 5799 5798 5797 5796 5794 5794 5792 5790 5788 5786 5784 5783 5781 5779 5777 5775 5773 5770 5768 5766 5764 5762 5759 5756 5753 5751 5748 5746 5745
5787 5788 5789 5790 5790 5790 5791 5791 5791 5791 5791 5791 5791 5790 5789 5788 5787 5785 5784 5783 5781 5779 5777 5775 5773 5771 5768 5766 5764 5762 5759 5757 5755 5752 5750 5747 5744 5742 5739 5736 5733 5731 5729
5780 5781 5781 5782 5781 5781 5782 5782 5781 5781 5781 5781 5780 5780 5779 5777 5776 5774 5773 5771 5769 5767 5765 5763 5760 5758 5755 5753 5750 5748 5745 5742 5740 5737 5734 5731 5728 5725 5722 5719 5716 5714 5712
5773 5774 5773 5773 5773 5773 5772 5772 5771 5771 5771 5770 5769 5769 5768 5766 5764 5763 5761 5759 5757 5754 5752 5750 5747 5744 5741 5739 5736 5733 5729 5727 5724 5721 5718 5715 5712 5709 5706 5702 5699 5697 5695
5765 5766 5765 5765 5765 5764 5763 5762 5762 5761 5760 5759 5758 5757 5756 5755 5753 5750 5748 5746 5744 5741 5738 5736 5733 5730 5727 5724 5720 5717 5713 5710 5707 5704 5701 5698 5695 5692 5689 5685 5682 5679 5677
5758 5758 5757 5757 5756 5754 5754 5753 5751 5750 5749 5748 5747 5745 5743 5741 5739 5737 5735 5732 5729 5727 5724 5721 5717 5714 5711 5708 5704 5701 5697 5694 5691 5688 5685 5681 5678 5675 5672 5668 5664 5661 5658
5749 5749 5748 5747 5746 5745 5743 5742 5741 5740 5738 5736 5735 5733 5731 5728 5726 5723 5721 5718 5715 5712 5709 5705 5702 5699 5695 5692 5688 5685 5681 5678 5674 5671 5668 5664 5661 5658 5654 5650 5646 5643 5640
5741 5740 5739 5738 5737 5735 5733 5732 5730 5729 5727 5724 5722 5720 5717 5715 5712 5709 5706 5703 5700 5696 5693 5690 5686 5683 5679 5676 5672 5669 5665 5661 5658 5654 5651 5647 5643 5640 5636 5632 5629 5625 5622
5732 5731 5730 5729 5727 5725 5723 5721 5720 5717 5715 5713 5710 5707 5704 5701 5697 5694 5691 5687 5684 5681 5678 5674 5671 5667 5663 5660 5656 5653 5649 5645 5642 5638 5634 5630 5626 5622 5619 5616 5612 5609 5605
5723 5722 5720 5719 5717 5715 5712 5710 5708 5705 5702 5699 5696 5693 5690 5686 5683 5679 5676 5672 5669 5666 5662 5659 5655 5651 5648 5644 5641 5637 5633 5629 5626 5622 5618 5614 5610 5606 5603 5599 5596 5593 5589
5714 5712 5710 5708 5706 5703 5700 5698 5695 5692 5689 5685 5682 5679 5675 5672 5668 5664 5661 5657 5654 5650 5646 5643 5639 5635 5632 5628 5625 5621 5618 5614 5610 5606 5602 5599 5595 5591 5588 5584 5580 5577 5574
5705 5702 5700 5697 5694 5692 5689 5686 5682 5679 5675 5672 5668 5664 5661 5657 5653 5650 5646 5642 5638 5634 5630 5627 5623 5619 5616 5612 5609 5605 5601 5598 5594 5590 5587 5584 5580 5577 5573 5569 5566 5563 5560
5694 5692 5689 5686 5683 5679 5676 5673 5669 5665 5661 5658 5654 5650 5646 5642 5638 5635 5631 5627 5623 5619 5615 5611 5608 5604 5600 5597 5593 5589 5586 5583 5579 5575 5572 5569 5566 5562 5559 5556 5553 5550 5547
5683 5680 5677 5674 5670 5666 5663 5659 5655 5651 5647 5643 5640 5636 5632 5628 5625 5621 5617 5613 5609 5605 5601 5597 5593 5590 5586 5582 5579 5575 5571 5568 5565 5562 5559 5556 5552 5549 5546 5543 5541 5538 5535
5672 5668 5665 5661 5657 5653 5649 5645 5641 5637 5633 5629 5626 5622 5619 5615 5612 5608 5604 5600 5596 5592 5588 5584 5580 5577 5574 5570 5566 5563 5559 5556 5552 5549 5547 5544 5541 5538 5535 5532 5530 5528 5525
5660 5656 5652 5648 5644 5639 5635 5631 5627 5623 5620 5616 5613 5610 5607 5603 5600 5596 5592 5589 5585 5581 5577 5573 5570 5566 5563 5559 5555 5552 5549 5545 5542 5539 5537 5534 5531 5528 5525 5523 5521 5519 5517